Location: R�jaumont
(43.8135°N, 0.5506°E)
Time: 15:44:17
(UTC+00:00)

Daily predictions for brighter satellites

Satellite Brightness Start Highest point End
(mag) Time Altitude Azimuth Time Altitude Azimuth Time Altitude Azimuth
IRAS Rocket 4.3 18:21:37 10° NNE 18:27:18 87° ESE 18:32:56 10° SSW
Cosmos 841 Rocket 3.5 18:23:09 10° NNW 18:28:26 80° ENE 18:33:39 10° SSE
IRS-1C Rocket 4.4 18:24:59 10° SE 18:30:00 48° ENE 18:35:03 10° N
Cosmos 1814 Rocket 4.2 18:24:59 10° NNW 18:30:15 54° ENE 18:35:28 10° SE
Cosmos 1745 Rocket 4.2 18:25:05 10° S 18:31:26 83° W 18:37:47 10° N
SeaSat 1 3.1 18:27:47 10° ESE 18:32:17 37° NE 18:36:48 10° NNW
Cosmos 2344 4.4 18:25:31 10° WSW 18:32:45 52° NW 18:40:29 10° NNE
SKYMED 2 4.5 18:29:02 10° N 18:33:18 56° WNW 18:37:33 10° SSW
Okean O Rocket 2.7 18:29:23 10° S 18:33:40 50° W 18:37:57 10° NNW
ARGOS 3.2 18:28:30 10° SSE 18:33:52 89° WSW 18:39:16 10° NNW
Feng Yun 1-1 Rocket 4.2 18:29:25 10° SSE 18:34:51 87° ENE 18:40:16 10° NNW
ERBS 2.9 18:36:15 10° SSW 18:39:15 34° SE 18:42:17 10° ENE
Cosmos 1743 2.7 18:36:38 10° S 18:40:28 86° E 18:44:21 10° N
Cosmos 1975 3.9 18:38:53 10° SE 18:42:05 24° E 18:45:17 10° NE
Cosmos 1943 Rocket 3.8 18:41:34 10° ESE 18:43:45 12° E 18:45:56 10° ENE
Cosmos 968 Rocket 4.1 18:39:17 10° SSE 18:43:59 35° ESE 18:48:45 10° NE
OBJECT-B 2.5 18:41:56 10° ESE 18:44:05 17° ENE 18:46:14 10° NNE
USA 215 3.4 18:39:12 10° SE 18:45:46 82° SW 18:52:22 10° NW
Cosmos 1536 3.9 18:41:51 10° SSW 18:45:47 50° W 18:49:44 10° N
USA 305 3.4 18:42:24 10° WSW 18:46:34 61° NNW 18:50:46 10° NE
Lacrosse 5 rocket 3.9 18:44:57 10° NNW 18:47:42 15° N 18:50:26 10° NE
ISS -2.2 18:48:09 10° S 18:50:34 19° SE 18:52:24 13° E
CZ-2C R/B 3.3 18:48:18 10° N 18:53:41 63° WNW 18:59:08 10° SSW
Cosmos 921 Rocket 3.4 18:49:41 10° N 18:53:52 43° ENE 18:57:57 10° SE
USA 307 3.5 18:53:07 10° WSW 18:57:16 57° NNW 19:01:28 10° NE
SL-4 R/B 1.6 18:53:55 10° WNW 18:57:21 83° SSW 19:00:24 14° SE
Meteor 2-9 Rocket 4.3 18:56:15 10° S 19:01:56 59° E 19:07:43 10° NNE
Cosmos 1842 3.3 19:01:07 10° N 19:05:02 60° E 19:08:54 10° SSE
USA 281 4.2 19:01:30 10° NE 19:06:27 22° E 19:11:21 10° SSE
H-2A R/B 4.2 19:02:23 10° SSW 19:06:33 27° W 19:10:50 10° NW
SJ-6B 3.7 19:04:21 14° SE 19:07:20 32° ENE 19:11:01 10° N
Cosmos 1400 Rocket 4.2 19:07:16 17° ESE 19:08:39 20° E 19:11:39 10° NE
Cosmos 2221 Rocket 3.5 19:08:04 10° N 19:12:31 79° E 19:16:55 10° SSE
Cosmos 1378 Rocket 4.0 19:09:31 10° N 19:13:41 41° ENE 19:17:05 14° SE
USA 306 4.0 19:10:05 10° W 19:14:06 42° NNW 19:18:10 10° NE
YAOGAN 1 3.7 19:10:33 10° S 19:14:42 46° W 19:18:54 10° NNW
ATLAS CENTAUR R/B 3.7 19:12:26 10° N 19:15:00 15° NE 19:17:09 11° ENE
USA 308 3.9 19:12:14 10° WSW 19:16:18 44° NNW 19:20:23 10° NE
Cosmos 1674 4.4 19:15:50 10° NNE 19:18:00 16° ENE 19:18:00 16° ENE
CZ-3 Stage 3 4.5 18:54:26 10° SW 19:21:49 30° S 19:27:42 17° SE
Inspiration4 2.9 19:18:30 10° SW 19:22:39 51° SE 19:25:24 20° ENE
COSMOS 2406 3.6 19:17:52 10° NNW 19:23:38 69° WSW 19:29:19 10° SSE
Okean-O 3.1 19:19:19 10° S 19:23:42 64° WSW 19:28:08 10° NNW
Meteor 2-12 Rocket 4.4 19:21:01 10° S 19:27:06 69° E 19:33:10 10° NNE
Cosmos 1833 Rocket 3.4 19:21:45 10° NNW 19:27:13 54° WSW 19:32:39 10° S
Cosmos 1674 Rocket 3.5 19:23:35 10° N 19:27:57 66° E 19:31:38 14° SSE
CZ-4B R/B 2.2 19:27:30 10° N 19:30:25 47° WNW 19:33:20 10° SSW
Meteor 1-21 4.1 19:24:45 10° N 19:30:28 77° E 19:36:06 10° SSE
Cosmos 2074 Rocket 3.9 19:24:32 10° S 19:30:41 65° E 19:36:54 10° NNE
USA 186 1.1 19:30:09 45° SSE 19:30:48 73° ENE 19:33:36 10° N
In-Cosmos 22 4.2 19:25:46 10° N 19:30:57 51° ENE 19:34:23 20° SE
Lacrosse 4 Rocket 2.6 19:29:46 10° SW 19:33:37 42° NW 19:37:30 10° NNE
USA 276 3.5 19:32:10 10° SSW 19:34:01 24° S 19:34:01 24° S
Cosmos 1932 4.4 19:29:28 10° SSW 19:35:46 84° ESE 19:42:01 10° NE
Cosmos 2082 Rocket 2.2 19:32:38 10° NNW 19:38:24 90° W 19:42:45 18° SSE
CSL-04 Rocket 3.9 19:34:19 10° S 19:39:35 69° WSW 19:44:58 10° NNW
Resurs 01 Rocket 2.8 19:40:22 25° ENE 19:40:30 25° ENE 19:44:08 10° NNE
Okean 2 3.3 19:39:32 10° N 19:43:38 90° SW 19:46:18 21° S
CZ-4 R/B 4.2 19:46:51 10° SW 19:49:22 17° W 19:51:53 10° NW
Cosmos 1340 2.7 19:46:32 10° NNW 19:50:19 76° W 19:52:07 29° S
Helios 1A Rocket 2.9 19:49:39 45° SE 19:50:41 61° ENE 19:54:45 10° N
Cosmos 836 Rocket 4.4 19:45:52 10° NNW 19:51:11 78° ENE 19:53:45 31° SSE
Cosmos 1733 Rocket 4.3 19:47:52 10° SSW 19:51:58 41° WNW 19:56:04 10° N
Cosmos 1782 Rocket 4.3 19:52:42 35° ENE 19:52:42 35° ENE 19:56:07 10° NNE
CSL-04 DEB 4.2 19:48:20 10° NNE 19:52:21 73° ESE 19:55:14 18° S
Ariane Rocket 3.2 19:53:08 39° ESE 19:54:33 51° ENE 19:59:28 10° N
Cosmos 2278 Rocket 3.8 19:53:48 10° WSW 19:58:59 36° NW 20:04:12 10° N
IRS-1A Rocket 4.3 19:57:02 33° SE 19:59:37 65° ENE 20:05:25 10° N
Cosmos 2297 3.6 19:56:07 10° S 20:01:43 65° ESE 20:07:22 10° NNE
Resurs 1-3 3.4 20:06:22 56° SSE 20:07:16 83° ENE 20:11:41 10° NNW
Cosmos 2369 Rocket 4.2 20:12:18 13° NE 20:12:18 13° NE 20:13:00 10° NE
Cosmos 2184 Rocket 4.3 20:02:21 10° SSW 20:08:42 69° W 20:15:02 10° N
Cosmos 1626 3.7 20:05:32 10° N 20:07:23 24° NNE 20:07:23 24° NNE
Cosmos 1346 Rocket 3.8 20:05:48 10° N 20:08:29 33° NE 20:08:29 33° NE
SeaSat 1 3.9 20:05:24 10° S 20:09:47 33° WSW 20:14:14 10° NW
MOS 1 4.2 20:08:02 36° SSE 20:10:27 82° ENE 20:16:10 10° NNW
Cosmos 1503 Rocket 3.8 20:06:56 10° SSW 20:12:11 82° ESE 20:17:24 10° NNE
ERBS 4.3 20:12:27 10° W 20:15:18 27° NNW 20:16:20 22° N
SPOT 1/Viking Rocket 4.2 20:15:40 38° ENE 20:15:40 38° ENE 20:20:08 10° N
OBJECT-B 3.0 20:14:35 18° SW 20:15:58 24° W 20:18:41 10° NW
Landsat 7 3.9 20:16:04 57° ENE 20:16:04 57° ENE 20:20:41 10° N
Cosmos 962 Rocket 4.5 20:16:03 46° SE 20:17:32 58° E 20:23:34 10° NNE
Cosmos 1707 3.9 20:14:00 10° NNW 20:17:41 40° W 20:19:14 27° SW
COSMOS 2455 2.8 20:12:19 10° NNW 20:18:21 68° ENE 20:19:34 54° ESE
IGS 5A 3.6 20:19:04 61° NNE 20:19:04 61° NNE 20:22:39 10° N
Cosmos 1238 Rocket 4.3 20:14:37 10° SSW 20:21:11 69° W 20:27:23 10° N
Cosmos 1975 Rocket 3.5 20:18:36 10° N 20:22:05 50° NNE 20:22:05 50° NNE
Cosmos 1354 Rocket 3.9 20:18:31 10° SSW 20:23:47 87° ESE 20:29:04 10° NNE
Cosmos 2327 Rocket 4.5 20:18:14 10° S 20:24:23 81° W 20:30:43 10° N
Cosmos 2154 Rocket 4.2 20:20:06 10° SSW 20:26:25 72° W 20:32:48 10° N
Cosmos 1943 Rocket 2.0 20:21:03 10° SSW 20:26:35 90° ESE 20:32:14 10° NNE
ISS -1.8 20:23:46 10° WSW 20:25:26 26° WSW 20:25:26 26° WSW
Lacrosse 5 rocket 3.0 20:24:18 10° NNW 20:28:07 27° NNE 20:28:07 27° NNE
Cosmos 1461 3.8 20:31:27 10° NNW 20:34:13 41° NNW 20:34:13 41° NNW
SL-4 R/B 4.5 20:34:55 10° WSW 20:35:57 12° WSW 20:35:57 12° WSW
EO 1 Delta rocket 3.9 20:36:55 68° WSW 20:37:10 70° W 20:42:01 10° NNW
SPOT 5 4.5 20:43:03 27° NE 20:43:03 27° NE 20:46:12 10° N
Cosmos 1025 Rocket 4.4 20:37:59 10° N 20:40:23 31° NNE 20:40:23 31° NNE
Meteor 1-12 Rocket 4.4 20:40:16 37° SSW 20:42:47 81° W 20:48:49 10° N
USA 281 3.3 20:44:54 10° NNE 20:51:27 73° WNW 20:57:58 10° SW
SL-8 Rocket 3.9 20:52:19 69° ENE 20:52:19 69° ENE 20:58:06 10° NNE
ATLAS CENTAUR R/B 2.6 20:50:00 10° NNW 20:53:17 44° NNW 20:53:17 44° NNW
Cosmos 1339 Rocket 4.4 20:55:05 10° N 21:01:14 86° NNW 21:01:14 86° NNW
Inspiration4 4.4 20:58:54 10° W 21:01:36 32° WNW 21:01:36 32° WNW
Cosmos 2341 Rocket 4.1 21:03:33 63° SW 21:04:27 73° W 21:10:49 10° N
Meteor 2-5 Rocket 4.3 21:09:16 10° N 21:13:17 50° N 21:13:17 50° N
BREEZE-M DEB (TANK) 4.3 21:00:24 10° WNW 21:15:15 78° SW 21:15:15 78° SW
SPOT 3 Rocket 4.4 21:16:41 47° WNW 21:16:41 47° WNW 21:20:48 10° NNW
Resurs 01 Rocket 3.4 21:17:56 29° WNW 21:17:56 29° WNW 21:20:52 10° NNW
Cosmos 2218 Rocket 4.4 21:29:22 57° NNW 21:29:22 57° NNW 21:34:20 10° N
FALCON 9 R/B 4.5 20:48:28 10° WSW 21:29:27 39° SSW 21:31:02 38° S
Cosmos 2366 rocket 4.5 21:31:14 55° NNW 21:31:14 55° NNW 21:36:06 10° N
Terra 4.0 21:35:09 21° N 21:35:09 21° N 21:36:43 10° N
Cosmos 2369 Rocket 3.8 21:54:02 31° NNW 21:54:02 31° NNW 21:57:20 10° NNE
